Dewpoint
56 56 56 56 56 55 55 55 55 55 55 55 55 55 55 56 56 56 56 57 57 57 57 57 58 59 52 36 25 59 78 75 67 64 60 55 54 56 53 48 47 44 45 43 43 44 44
56 56 56 55 55 55 55 55 55 55 55 55 55 55 55 55 56 56 56 56 56 56 57 58 58 59 46 27 50 56 54 61 61 62 59 54 59 57 52 49 51 50 48 43 44 45 44
56 56 56 55 55 55 55 54 54 54 54 54 55 55 56 56 55 56 56 56 55 56 57 58 59 53 38 23 45 54 55 60 58 59 55 55 56 51 50 48 50 48 47 44 47 46 45
56 56 56 55 55 55 55 54 54 54 55 55 55 55 55 55 55 55 56 56 55 56 58 61 60 48 30 22 26 53 55 56 56 56 57 61 55 52 53 49 46 48 55 51 52 54 48
56 56 55 54 54 54 55 55 54 55 55 56 56 56 55 55 55 55 55 55 55 58 61 60 52 44 26 37 24 37 53 52 53 53 54 59 53 53 56 49 46 50 51 51 53 54 55
55 55 55 54 54 55 55 55 55 55 55 55 55 55 55 55 54 54 54 54 57 58 56 49 44 39 29 14 11 25 48 52 49 51 52 52 48 49 52 50 45 52 50 50 50 55 55
55 55 55 54 55 55 55 55 55 55 55 55 55 55 55 54 53 53 50 47 42 40 41 28 27 29 16 17 8 29 48 50 48 49 48 47 44 42 44 47 46 48 47 46 50 51 48
55 55 55 54 55 55 55 55 55 55 55 55 55 55 55 54 53 53 50 42 37 32 32 35 27 27 19 4 3 35 49 47 46 44 46 43 39 42 46 44 46 45 46 46 45 51 49
55 55 55 55 55 55 55 55 55 55 55 55 55 54 54 53 53 49 37 39 34 31 28 27 28 24 20 15 8 21 46 46 44 43 42 39 42 46 44 43 42 44 44 46 44 47 49
56 56 56 55 55 55 55 55 55 55 55 54 54 54 53 52 48 37 32 35 32 30 25 21 25 23 22 21 17 12 40 44 43 41 39 38 45 52 45 44 46 44 45 45 47 44 42
56 55 55 55 55 55 55 55 55 55 54 54 54 53 52 51 45 33 32 31 31 29 23 19 22 21 22 20 15 11 26 41 41 40 38 35 35 36 41 39 39 44 45 45 41 43 45
55 55 55 55 54 55 55 54 54 54 53 53 53 52 51 47 45 33 31 31 29 25 21 19 22 20 19 20 18 10 9 36 40 37 35 34 33 31 37 39 42 48 48 48 49 50 44
55 55 55 55 55 54 54 54 54 53 53 52 51 51 50 45 35 25 24 29 24 21 21 20 21 21 18 19 19 13 11 22 33 32 32 33 30 34 37 34 41 44 47 45 48 47 47
55 55 55 55 55 54 54 54 54 53 52 51 50 49 48 42 36 34 29 28 26 20 21 21 20 18 19 18 17 11 12 18 30 30 27 29 26 32 39 32 40 42 35 39 41 42 44
55 55 54 55 54 54 54 54 53 53 52 50 49 43 42 41 39 33 29 25 24 24 20 17 17 16 18 17 16 14 13 15 19 25 28 24 25 29 37 34 34 35 41 44 40 39 37
55 55 54 55 54 54 54 53 53 53 51 49 45 39 38 36 34 32 30 27 21 19 23 19 19 16 18 18 17 15 14 15 15 20 24 21 21 28 33 35 34 32 42 42 42 39 41
55 55 54 55 54 54 54 54 53 52 51 50 44 36 35 31 32 28 25 24 23 18 21 22 19 19 17 17 17 16 13 12 12 14 20 16 16 20 25 32 29 35 38 39 35 37 35
54 54 54 55 54 54 54 54 53 52 50 44 36 30 36 30 26 26 24 24 28 18 20 20 20 23 23 18 18 18 15 13 11 11 11 14 12 16 16 22 27 28 29 30 28 30 40
53 54 55 55 55 54 54 53 52 52 50 44 38 30 36 31 22 21 23 19 19 18 18 20 17 19 22 23 24 20 17 15 13 11 13 12 13 12 13 10 11 22 27 26 26 35 44
53 54 55 56 55 54 54 53 52 52 51 46 38 24 30 33 29 22 25 24 19 18 17 17 21 22 22 24 24 24 17 22 18 14 54 32 10 10 10 14 12 18 23 27 24 25 45
52 52 54 55 54 54 53 53 52 52 50 47 41 25 34 30 25 23 21 25 22 20 18 18 23 23 24 25 24 23 23 25 24 36 25 14 13 14 10 8 7 10 20 28 27 25 36
52 52 53 55 54 53 53 53 53 52 50 45 32 34 33 32 30 27 29 25 20 19 20 19 19 19 22 24 26 30 25 25 26 25 24 18 19 17 15 11 9 8 9 14 22 24 26
52 51 52 53 54 53 52 53 53 52 49 39 37 36 34 31 21 21 22 24 21 23 21 19 23 26 21 28 30 29 27 25 25 26 24 20 17 18 18 15 14 12 11 11 13 25 25
52 51 52 53 54 53 52 53 53 53 51 45 41 37 34 27 24 21 21 26 24 29 29 26 23 27 32 32 30 27 25 25 26 27 25 25 23 23 17 19 18 15 13 12 11 12 17
51 51 51 52 53 53 52 51 52 53 52 46 45 38 36 32 28 25 23 24 28 30 30 28 28 29 30 27 27 27 25 27 26 25 24 22 25 25 24 20 20 19 18 15 14 14 13
50 51 51 52 54 53 51 51 51 53 52 47 45 43 39 35 28 32 29 29 27 26 26 28 29 29 29 26 23 28 23 26 25 25 23 22 23 24 28 25 22 24 21 22 19 17 17
50 51 52 52 53 53 51 51 51 52 52 47 46 44 43 37 33 33 31 32 34 29 27 28 28 29 28 26 20 16 16 23 23 25 28 26 30 25 25 25 26 27 24 26 24 32 41
50 50 51 52 53 53 51 51 51 51 52 49 46 46 43 40 38 37 36 34 34 32 31 32 30 29 28 25 21 21 18 18 19 28 29 31 28 27 28 29 27 29 28 27 44 46 47
50 50 51 52 53 52 51 50 51 51 52 52 44 44 44 41 39 40 39 37 36 36 35 34 32 33 31 26 25 23 20 20 25 17 24 23 26 29 27 27 40 36 33 35 45 50 48
Lifted_Index
16 16 16 17 17 17 17 17 18 18 18 18 18 18 18 18 17 17 17 17 16 15 15 15 15 14 11 9 6 4 2 0 -0 -1 -1 -1 -2 -2 -1 -1 -1 -2 -2 -1 0 0 0
16 16 16 17 17 17 18 18 18 18 18 18 18 18 18 18 17 17 17 17 16 15 15 14 14 13 11 8 6 4 3 1 0 -1 -1 -1 -2 -2 -1 -1 -1 -2 -2 -1 -1 -0 -0
16 16 16 17 17 17 17 18 18 18 18 18 18 18 18 18 18 17 17 17 16 15 14 14 13 12 10 8 6 4 3 1 0 -0 -1 -1 -2 -2 -2 -2 -2 -2 -2 -1 -1 -1 -1
15 15 16 16 17 17 17 17 18 18 18 18 18 18 18 18 18 17 17 17 16 15 14 13 12 10 9 9 7 4 2 1 1 0 -1 -1 -2 -1 -1 -2 -2 -2 -2 -1 -1 -1 -1
15 15 16 16 16 17 17 17 17 17 17 17 17 17 18 18 18 17 16 16 15 13 12 11 10 9 9 9 8 5 2 1 1 0 -1 -1 -1 -1 -1 -2 -2 -2 -2 -1 -1 -1 -1
13 14 15 16 16 16 16 16 17 17 17 17 17 17 17 17 17 17 16 14 13 12 11 10 9 8 8 8 8 6 3 1 1 0 -0 -1 -1 -1 -2 -2 -3 -2 -2 -1 -1 -1 -1
12 13 14 15 16 16 16 16 16 16 16 16 16 17 17 17 17 16 15 12 10 10 10 9 8 8 8 7 7 5 2 1 0 0 -0 -0 -1 -2 -2 -2 -2 -2 -2 -2 -1 -1 -1
13 13 13 13 15 15 16 16 16 16 16 16 16 17 17 17 17 16 13 10 9 9 8 8 8 8 7 7 6 4 1 0 0 0 -0 -1 -1 -2 -1 -1 -1 -1 -2 -2 -2 -2 -2
14 13 13 13 14 14 15 16 16 16 16 17 17 17 17 17 15 14 12 10 9 9 8 8 8 8 8 7 6 4 1 -0 0 0 -1 -2 -2 -1 -1 -1 -0 -1 -2 -2 -2 -2 -2
15 14 14 13 13 14 14 15 15 16 16 17 17 17 17 16 13 11 10 9 9 8 7 7 7 8 7 7 6 5 2 0 -0 -0 -1 -2 -1 -1 -1 -1 -1 -1 -2 -2 -2 -2 -2
15 15 15 14 14 13 14 14 15 15 15 16 17 17 16 15 12 10 9 9 8 7 5 5 6 7 7 6 5 4 3 1 -0 -1 -1 -1 -1 -1 -1 -1 -1 -2 -1 -1 -1 -2 -2
15 15 16 15 15 14 14 14 14 14 14 15 16 17 16 14 11 10 9 9 7 5 3 3 5 6 6 5 5 4 3 2 1 -0 -1 -1 -1 -1 -1 -1 -1 -2 -1 -1 -1 -1 -1
15 16 16 16 15 15 14 14 14 14 14 15 16 16 14 12 10 10 9 8 5 3 2 2 4 5 5 5 4 3 3 3 2 1 -0 -1 -1 -1 -1 -1 -2 -2 -2 -1 -1 -1 -1
16 16 16 16 15 15 14 14 15 15 14 15 15 15 12 11 10 9 8 6 4 2 1 1 2 3 4 4 3 3 3 3 3 2 0 -0 -0 -0 -1 -1 -1 -2 -2 -2 -2 -1 -1
15 16 16 16 16 15 15 15 15 15 15 15 14 13 10 9 9 9 7 5 3 1 1 1 1 2 2 2 2 2 2 2 3 2 1 -0 -0 -0 -0 -1 -1 -1 -1 -2 -1 -1 -1
15 15 16 16 16 16 16 15 15 15 15 14 13 10 9 9 9 8 7 4 3 2 2 2 1 1 1 1 1 1 1 2 2 2 1 1 -0 -0 -0 -0 -0 -1 -1 -1 -1 -1 -1
15 15 15 15 16 16 16 16 15 15 15 14 11 9 8 8 9 8 6 5 4 4 4 4 3 1 0 -0 -0 -0 -0 0 0 0 1 1 -0 -0 -0 -0 -0 -1 -1 -1 -1 -1 -1
15 15 15 15 15 16 16 15 15 15 14 13 10 8 7 8 9 8 7 5 5 5 5 4 4 2 1 -0 -0 -1 -1 -1 -0 -0 -0 -0 -0 -1 -1 -1 -1 -0 -0 -0 -1 -1 -1
15 15 14 14 15 15 15 15 15 15 15 13 10 8 7 8 8 7 7 6 5 5 5 5 4 3 2 1 0 -0 -1 -0 -0 -0 -0 -0 -1 -1 -1 -1 -1 -0 -0 -0 -0 -1 -1
15 15 14 14 15 15 15 15 15 15 14 12 9 8 7 7 7 7 6 6 5 5 5 5 5 4 3 2 1 0 -0 0 0 0 0 0 -0 -1 -1 -1 -1 -1 -0 -0 -0 -0 -1
15 15 14 14 14 15 15 15 15 15 14 12 9 8 7 7 7 7 7 6 6 6 6 6 5 5 4 3 2 0 -0 0 1 1 1 1 1 -0 -0 -1 -1 -1 -1 -0 0 -0 -0
16 15 15 14 14 15 15 15 15 14 13 11 10 9 8 7 7 7 7 6 6 6 6 6 6 5 5 4 2 1 1 1 1 2 2 2 1 1 -0 -1 -1 -1 -1 -1 -0 -0 -0
15 15 15 14 14 14 15 15 15 14 13 11 10 10 9 9 8 8 7 7 7 6 6 6 7 6 5 5 4 3 3 2 2 2 2 2 2 1 -0 -0 -1 -1 -1 -1 -1 -1 -0
15 15 15 14 13 14 14 15 15 14 13 12 11 10 10 9 8 8 8 7 7 7 7 7 7 7 6 6 6 5 4 3 3 3 2 2 1 0 -0 -0 -1 -1 -1 -1 -1 -1 -1
15 15 14 14 13 13 14 14 14 14 13 12 11 10 9 8 8 8 8 8 8 7 7 7 7 7 7 7 6 5 4 4 4 4 3 2 1 0 -0 -0 -1 -1 -1 -1 -1 -1 -1
15 14 14 13 13 13 13 13 13 13 13 11 10 10 9 8 8 8 8 8 8 7 7 7 7 8 8 7 6 5 4 4 4 4 4 3 2 1 1 -0 -0 -1 -1 -1 -1 -1 -1
14 14 13 13 12 12 12 13 13 13 12 11 10 9 9 8 8 8 8 8 7 7 7 6 7 7 8 7 6 5 5 4 3 3 3 3 2 2 1 1 0 -0 -0 -1 -1 -1 -2
14 13 13 12 12 11 12 12 12 12 11 10 9 9 9 8 8 8 8 8 7 7 6 6 6 7 7 7 6 6 6 5 4 3 2 2 2 2 2 1 1 1 0 -1 -2 -2 -2
13 13 12 11 11 11 11 11 11 11 11 10 9 8 9 8 7 7 7 7 7 7 6 6 6 6 6 6 6 6 6 5 4 3 2 1 1 1 1 1 1 1 0 -1 -2 -3 -3